Terminal Aerodrome Forecast
Issued by NWS

Home | Current Version | Previous Version | Text Only | Print | Product List | Glossary On
Versions: 1 2 3 4 5 6 7 8 9 10 11 12 13 14 15 16 17 18 19 20 21 22 23 24 25 26 27 28 29 30 31 32
000
FTUS42 KCAE 040240 AAA
TAFDNL
TAF AMD
KDNL 040240Z 0403/0424 23004KT P6SM BKN200
     FM040500 VRB04KT P6SM VCSH SCT070 BKN200
     FM041500 27013G20KT P6SM SCT030=

USA.gov is the U.S. government's official web portal to all federal, state and local government web resources and services.